| time (UTC) | temp C | wind direction | speed KPH | gust KPH | rain 1hr cm | rain 24hr cm | rain mn cm | humidity % | barometer mb |
| 20260510231547 | 14 | 250 | 0.0 | 3.2 | 0.00 | 0.00 | 0.00 | 36 | 1019.4 |
| 20260510230047 | 15 | 274 | 1.6 | 8.0 | 0.00 | 0.00 | 0.00 | 35 | 1019.3 |
| 20260510224545 | 15 | 292 | 0.0 | 4.8 | 0.00 | 0.00 | 0.00 | 37 | 1019.2 |
| 20260510223044 | 15 | 278 | 0.0 | 6.4 | 0.00 | 0.00 | 0.00 | 35 | 1019.2 |
| 20260510221543 | 14 | 272 | 0.0 | 4.8 | 0.00 | 0.00 | 0.00 | 36 | 1019.2 |
| 20260510220042 | 15 | 282 | 0.0 | 6.4 | 0.00 | 0.00 | 0.00 | 35 | 1019.0 |
| 20260510214551 | 15 | 203 | 1.6 | 6.4 | 0.00 | 0.00 | 0.00 | 33 | 1018.9 |
| 20260510213045 | 15 | 271 | 0.0 | 3.2 | 0.00 | 0.00 | 0.00 | 33 | 1018.7 |
| 20260510211541 | 15 | 259 | 0.0 | 11.3 | 0.00 | 0.00 | 0.00 | 33 | 1018.6 |
| 20260510210040 | 15 | 270 | 0.0 | 8.0 | 0.00 | 0.00 | 0.00 | 34 | 1018.2 |
| 20260510204540 | 15 | 255 | 0.0 | 6.4 | 0.00 | 0.00 | 0.00 | 32 | 1018.2 |
| 20260510203040 | 15 | 7 | 0.0 | 12.9 | 0.00 | 0.00 | 0.00 | 32 | 1018.4 |
| 20260510201538 | 16 | 287 | 1.6 | 9.7 | 0.00 | 0.00 | 0.00 | 31 | 1018.5 |
| 20260510200037 | 15 | 63 | 0.0 | 4.8 | 0.00 | 0.00 | 0.00 | 34 | 1018.8 |
| 20260510194536 | 15 | 78 | 0.0 | 8.0 | 0.00 | 0.00 | 0.00 | 34 | 1018.8 |
| 20260510193036 | 15 | 293 | 1.6 | 11.3 | 0.00 | 0.00 | 0.00 | 30 | 1018.9 |
| 20260510191532 | 15 | 281 | 0.0 | 4.8 | 0.00 | 0.00 | 0.00 | 34 | 1018.9 |
| 20260510190035 | 14 | 273 | 0.0 | 6.4 | 0.00 | 0.00 | 0.00 | 33 | 1019.0 |
| 20260510184528 | 15 | 99 | 0.0 | 4.8 | 0.00 | 0.00 | 0.00 | 31 | 1018.8 |
| 20260510183028 | 14 | 280 | 1.6 | 11.3 | 0.00 | 0.00 | 0.00 | 34 | 1018.8 |
| 20260510181531 | 15 | 265 | 1.6 | 8.0 | 0.00 | 0.00 | 0.00 | 32 | 1018.6 |
| 20260510180026 | 14 | 286 | 1.6 | 6.4 | 0.00 | 0.00 | 0.00 | 36 | 1018.6 |
| 20260510174522 | 13 | 283 | 1.6 | 8.0 | 0.00 | 0.00 | 0.00 | 34 | 1018.5 |
| 20260510173024 | 13 | 245 | 1.6 | 9.7 | 0.00 | 0.00 | 0.00 | 34 | 1018.6 |
| 20260510171523 | 13 | 22 | 1.6 | 8.0 | 0.00 | 0.00 | 0.00 | 36 | 1018.8 |
| 20260510170020 | 13 | 283 | 3.2 | 8.0 | 0.00 | 0.00 | 0.00 | 35 | 1018.9 |
| 20260510164524 | 12 | 105 | 0.0 | 8.0 | 0.00 | 0.00 | 0.00 | 35 | 1018.7 |
| 20260510163016 | 12 | 271 | 0.0 | 4.8 | 0.00 | 0.00 | 0.00 | 36 | 1018.7 |
| 20260510161515 | 12 | 5 | 0.0 | 8.0 | 0.00 | 0.00 | 0.00 | 38 | 1018.8 |
| 20260510160114 | 12 | 70 | 0.0 | 6.4 | 0.00 | 0.00 | 0.00 | 41 | 1018.5 |
| 20260510154512 | 12 | 82 | 0.0 | 3.2 | 0.00 | 0.00 | 0.00 | 41 | 1018.5 |
| 20260510153010 | 11 | 355 | 0.0 | 4.8 | 0.00 | 0.00 | 0.00 | 42 | 1018.3 |
| 20260510151509 | 11 | 288 | 1.6 | 6.4 | 0.00 | 0.00 | 0.00 | 42 | 1018.2 |
| 20260510150008 | 11 | 277 | 1.6 | 8.0 | 0.00 | 0.00 | 0.00 | 42 | 1018.1 |
| 20260510144506 | 11 | 274 | 0.0 | 6.4 | 0.00 | 0.00 | 0.00 | 44 | 1017.9 |
| 20260510143008 | 10 | 294 | 0.0 | 3.2 | 0.00 | 0.00 | 0.00 | 47 | 1017.8 |
| 20260510141504 | 10 | 23 | 0.0 | 4.8 | 0.00 | 0.00 | 0.00 | 46 | 1017.8 |
| 20260510140002 | 9 | 51 | 0.0 | 6.4 | 0.00 | 0.00 | 0.00 | 49 | 1017.8 |
| 20260510134501 | 9 | 338 | 0.0 | 4.8 | 0.00 | 0.00 | 0.00 | 50 | 1017.6 |
| 20260510133101 | 9 | 279 | 0.0 | 1.6 | 0.00 | 0.00 | 0.00 | 52 | 1017.6 |
| 20260510131604 | 8 | 252 | 0.0 | 1.6 | 0.00 | 0.00 | 0.00 | 52 | 1017.4 |
| 20260510130056 | 8 | 252 | 0.0 | 3.2 | 0.00 | 0.00 | 0.00 | 54 | 1017.3 |
| 20260510124603 | 8 | 64 | 0.0 | 1.6 | 0.00 | 0.00 | 0.00 | 57 | 1017.2 |
| 20260510123059 | 7 | 275 | 0.0 | 4.8 | 0.00 | 0.00 | 0.00 | 58 | 1017.1 |
| 20260510121553 | 7 | 244 | 0.0 | 1.6 | 0.00 | 0.00 | 0.00 | 63 | 1017.0 |
| 20260510120050 | 7 | 252 | 0.0 | 1.6 | 0.00 | 0.00 | 0.00 | 65 | 1016.8 |
| 20260510114553 | 6 | 271 | 0.0 | 1.6 | 0.00 | 0.00 | 0.00 | 68 | 1016.5 |
| 20260510113047 | 6 | 269 | 0.0 | 1.6 | 0.00 | 0.00 | 0.00 | 70 | 1016.3 |
| 20260510111551 | 5 | 276 | 0.0 | 1.6 | 0.00 | 0.00 | 0.00 | 78 | 1016.1 |
| 20260510110046 | 5 | 281 | 0.0 | 1.6 | 0.00 | 0.00 | 0.00 | 79 | 1016.0 |
| 20260510104546 | 4 | 331 | 0.0 | 1.6 | 0.00 | 0.00 | 0.00 | 78 | 1015.8 |
| 20260510103043 | 4 | 61 | 0.0 | 0.0 | 0.00 | 0.00 | 0.00 | 78 | 1015.5 |
| 20260510101538 | 5 | 61 | 0.0 | 0.0 | 0.00 | 0.00 | 0.00 | 77 | 1015.3 |
| 20260510100040 | 5 | 61 | 0.0 | 0.0 | 0.00 | 0.00 | 0.00 | 76 | 1015.1 |
| 20260510094542 | 5 | 61 | 0.0 | 0.0 | 0.00 | 0.00 | 0.00 | 74 | 1014.9 |
| 20260510093033 | 6 | 61 | 0.0 | 0.0 | 0.00 | 0.00 | 0.00 | 72 | 1014.8 |
| 20260510091534 | 6 | 61 | 0.0 | 0.0 | 0.00 | 0.00 | 0.00 | 72 | 1014.8 |
| 20260510090025 | 6 | 61 | 0.0 | 0.0 | 0.00 | 0.00 | 0.00 | 71 | 1014.5 |
| 20260510084521 | 6 | 61 | 0.0 | 0.0 | 0.00 | 0.00 | 0.00 | 70 | 1014.1 |
| 20260510083025 | 7 | 61 | 0.0 | 0.0 | 0.00 | 0.00 | 0.00 | 69 | 1013.7 |
| 20260510081515 | 7 | 61 | 0.0 | 0.0 | 0.00 | 0.00 | 0.00 | 68 | 1013.5 |
| 20260510080022 | 7 | 61 | 0.0 | 0.0 | 0.00 | 0.00 | 0.00 | 67 | 1013.2 |
| 20260510074508 | 8 | 61 | 0.0 | 0.0 | 0.00 | 0.00 | 0.00 | 65 | 1012.7 |
| 20260510073016 | 8 | 61 | 0.0 | 0.0 | 0.00 | 0.00 | 0.00 | 63 | 1012.4 |
| 20260510071505 | 8 | 61 | 0.0 | 1.6 | 0.00 | 0.00 | 0.00 | 63 | 1012.1 |
| 20260510070003 | 8 | 83 | 0.0 | 0.0 | 0.00 | 0.00 | 0.00 | 68 | 1012.0 |
| 20260510064502 | 8 | 83 | 0.0 | 1.6 | 0.00 | 0.00 | 0.00 | 69 | 1011.9 |
| 20260510063100 | 8 | 43 | 0.0 | 0.0 | 0.00 | 0.00 | 0.00 | 72 | 1011.9 |
| 20260510061600 | 8 | 43 | 0.0 | 0.0 | 0.00 | 0.00 | 0.00 | 69 | 1011.6 |
| 20260510060055 | 9 | 43 | 0.0 | 0.0 | 0.00 | 0.00 | 0.00 | 67 | 1011.4 |
| 20260510054550 | 10 | 43 | 0.0 | 0.0 | 0.00 | 0.00 | 0.00 | 67 | 1011.3 |
| 20260510053046 | 10 | 43 | 0.0 | 0.0 | 0.00 | 0.00 | 0.00 | 65 | 1011.0 |
| 20260510051547 | 11 | 43 | 0.0 | 0.0 | 0.00 | 0.00 | 0.00 | 65 | 1010.8 |
| 20260510050040 | 11 | 63 | 0.0 | 1.6 | 0.00 | 0.00 | 0.00 | 63 | 1010.5 |
| 20260510044539 | 11 | 63 | 0.0 | 0.0 | 0.00 | 0.00 | 0.00 | 61 | 1010.4 |
| 20260510043035 | 12 | 59 | 0.0 | 1.6 | 0.00 | 0.00 | 0.00 | 61 | 1009.9 |
| 20260510041531 | 12 | 58 | 0.0 | 0.0 | 0.00 | 0.00 | 0.00 | 61 | 1009.8 |
| 20260510040027 | 13 | 275 | 0.0 | 0.0 | 0.00 | 0.00 | 0.00 | 59 | 1009.5 |
| 20260510034525 | 13 | 274 | 0.0 | 1.6 | 0.00 | 0.00 | 0.00 | 55 | 1009.2 |
| 20260510033024 | 13 | 291 | 0.0 | 4.8 | 0.00 | 0.00 | 0.00 | 53 | 1009.0 |
| 20260510031523 | 14 | 267 | 0.0 | 4.8 | 0.00 | 0.00 | 0.00 | 52 | 1008.6 |
| 20260510030023 | 15 | 252 | 0.0 | 4.8 | 0.00 | 0.00 | 0.00 | 50 | 1008.5 |
| 20260510024520 | 15 | 274 | 0.0 | 4.8 | 0.00 | 0.00 | 0.00 | 48 | 1008.2 |
| 20260510023019 | 15 | 325 | 0.0 | 8.0 | 0.00 | 0.00 | 0.00 | 48 | 1008.1 |
| 20260510021520 | 16 | 293 | 0.0 | 8.0 | 0.00 | 0.00 | 0.00 | 50 | 1007.7 |
| 20260510020018 | 16 | 273 | 1.6 | 9.7 | 0.00 | 0.00 | 0.00 | 50 | 1006.9 |
| 20260510014517 | 16 | 262 | 0.0 | 4.8 | 0.00 | 0.00 | 0.00 | 53 | 1006.5 |
| 20260510013016 | 16 | 352 | 0.0 | 4.8 | 0.00 | 0.00 | 0.00 | 54 | 1006.1 |
| 20260510011517 | 16 | 276 | 0.0 | 3.2 | 0.00 | 0.00 | 0.00 | 53 | 1005.7 |
| 20260510010016 | 16 | 299 | 0.0 | 1.6 | 0.00 | 0.00 | 0.00 | 52 | 1005.4 |
| 20260510004514 | 17 | 272 | 0.0 | 0.0 | 0.00 | 0.00 | 0.00 | 49 | 1005.1 |
| 20260510003022 | 17 | 282 | 0.0 | 4.8 | 0.00 | 0.00 | 0.00 | 47 | 1004.9 |
| 20260510001513 | 18 | 280 | 0.0 | 4.8 | 0.00 | 0.00 | 0.00 | 46 | 1004.7 |
| 20260510000014 | 18 | 292 | 0.0 | 3.2 | 0.00 | 0.00 | 0.00 | 44 | 1004.5 |
| 20260509234523 | 19 | 277 | 1.6 | 6.4 | 0.00 | 0.00 | 0.00 | 43 | 1004.4 |
| 20260509233012 | 19 | 67 | 0.0 | 4.8 | 0.00 | 0.00 | 0.00 | 43 | 1004.3 |